This is the latest recevied weather packets stored in our database for station/object SV2RIM-2. If no packets are shown the sender has not sent any weather packets the latest 10 day(s).
| Time | Temp. | Humidity | Pressure | Rain* | Wind** | Luminosity | Snow |
|---|---|---|---|---|---|---|---|
| 1777494319 | 13.89° C | 59% | 1016.1 hPa | - | - | - | - |
| 1777493719 | 13.89° C | 60% | 1016.1 hPa | - | - | - | - |
| 1777493119 | 14.44° C | 59% | 1015.9 hPa | - | - | - | - |
| 1777492519 | 14.44° C | 58% | 1015.9 hPa | - | - | - | - |
| 1777491919 | 14.44° C | 59% | 1015.8 hPa | - | - | - | - |
| 1777491319 | 15° C | 57% | 1015.8 hPa | - | - | - | - |
| 1777490719 | 15° C | 57% | 1015.7 hPa | - | - | - | - |
| 1777490119 | 15.56° C | 56% | 1015.6 hPa | - | - | - | - |
| 1777489519 | 15.56° C | 55% | 1015.6 hPa | - | - | - | - |
| 1777488919 | 16.11° C | 54% | 1015.7 hPa | - | - | - | - |
| 1777488319 | 16.67° C | 52% | 1015.6 hPa | - | - | - | - |
| 1777487719 | 16.67° C | 52% | 1015.4 hPa | - | - | - | - |
| 1777487119 | 17.22° C | 51% | 1015.2 hPa | - | - | - | - |
| 1777486519 | 17.22° C | 51% | 1015.2 hPa | - | - | - | - |
| 1777485919 | 17.22° C | 52% | 1015.1 hPa | - | - | - | - |
| 1777485319 | 17.22° C | 52% | 1015 hPa | - | - | - | - |
| 1777484719 | 17.78° C | 52% | 1014.9 hPa | - | - | - | - |
| 1777484119 | 17.78° C | 52% | 1014.7 hPa | - | - | - | - |
| 1777483519 | 18.33° C | 52% | 1014.6 hPa | - | - | - | - |
| 1777482919 | 18.33° C | 52% | 1014.6 hPa | - | - | - | - |
| 1777482319 | 19.44° C | 51% | 1014.6 hPa | - | - | - | - |
| 1777481719 | 20.56° C | 49% | 1014.5 hPa | - | - | - | - |
| 1777481119 | 21.11° C | 48% | 1014.4 hPa | - | - | - | - |
| 1777480519 | 20.56° C | 52% | 1014.4 hPa | - | - | - | - |
| 1777479919 | 21.67° C | 52% | 1014.4 hPa | - | - | - | - |
* Rain since midnight (hover to see other rain measurements)
** Current wind speed in m/s (hover to see current wind gust speed)